Wetbulb
39.01 35.62 29.31 30.64 32.35 32.02 30.72 28.35 28.53 30.78 34.76 32.79 29.25 28.81 30.11 31.57 31.33 30.58 30.98 31.23 32.12 33.24 36.01 38.51 39.86 40.27 40.08 40.55 40.13 40.23 39.79 40.63 40.30 40.38 40.02 39.55 39.30 40.23 40.95 42.05 43.64 43.78 44.30 44.68
35.52 31.06 35.17 36.75 35.90 32.77 30.99 29.12 28.02 32.23 34.63 32.99 28.80 27.18 28.81 30.31 30.10 30.57 30.38 30.29 31.31 32.81 34.62 37.06 38.39 39.53 39.82 39.91 40.10 39.81 39.63 39.71 39.97 40.17 39.80 39.60 39.28 40.29 40.86 42.06 42.83 42.88 43.13 43.58
31.95 34.17 38.98 35.96 32.87 31.59 29.24 28.21 28.44 29.06 31.29 31.26 28.59 25.39 26.06 28.37 30.43 31.57 31.39 30.87 31.84 31.99 32.88 34.80 36.45 37.53 38.56 38.30 38.95 39.88 39.56 38.93 39.11 38.93 39.06 38.83 38.73 38.88 39.08 40.04 40.58 42.07 42.45 43.23
34.17 37.46 35.88 33.47 32.24 31.76 26.24 33.14 32.21 30.02 26.50 21.77 28.52 18.34 21.77 24.81 26.66 28.61 28.49 28.73 30.33 31.58 33.28 34.12 34.58 35.30 36.48 37.69 39.12 39.67 39.69 38.27 39.15 39.22 37.75 35.58 35.45 35.32 38.28 37.61 39.92 40.99 41.73 42.19
31.41 33.98 32.97 31.94 32.41 33.09 30.23 34.23 30.09 29.30 24.58 22.16 23.17 20.02 16.99 24.12 23.50 25.60 27.74 29.09 30.32 31.86 32.56 32.99 33.66 34.98 36.23 37.41 37.71 38.92 39.69 38.73 38.55 38.19 37.14 36.09 35.18 36.48 37.46 37.53 37.48 38.92 40.38 41.20
33.01 38.09 35.23 33.09 34.74 34.09 34.91 30.03 27.66 25.98 23.87 19.35 20.87 20.41 15.18 19.52 23.25 25.19 27.96 29.38 30.66 31.74 32.77 33.88 35.12 35.84 35.90 37.03 37.10 38.04 38.92 38.67 38.44 38.02 37.28 35.43 35.01 35.28 35.35 36.52 36.51 37.59 38.32 39.37
30.31 31.87 34.73 35.77 31.04 33.30 29.65 23.32 20.47 20.94 19.19 20.45 22.96 19.53 17.18 24.25 27.18 27.02 27.23 28.80 31.08 32.44 32.71 33.39 33.78 34.23 35.18 35.70 36.37 37.13 38.55 37.58 38.25 37.59 37.32 36.89 35.98 35.32 34.84 35.57 36.30 36.42 37.25 37.51
22.76 24.26 30.07 34.21 29.98 26.81 25.37 22.97 18.74 15.60 15.03 18.18 23.03 16.71 21.20 26.04 28.40 29.54 30.49 30.79 31.88 32.34 33.25 33.63 34.46 34.60 35.14 35.94 36.26 36.43 37.22 36.93 37.66 37.35 37.26 37.60 37.10 36.25 36.34 36.78 36.68 36.96 37.43 37.92
21.10 23.90 31.36 32.24 30.69 28.97 25.44 21.08 24.28 19.23 16.42 12.87 17.32 18.14 24.31 26.51 26.82 27.82 28.81 30.02 30.33 31.94 32.94 33.61 34.83 35.33 35.64 35.92 35.94 36.47 36.70 36.80 37.14 37.16 37.56 37.53 37.44 37.11 36.39 36.78 37.15 37.06 37.42 38.16
24.64 21.52 27.72 31.22 31.69 30.19 26.23 27.03 18.69 17.99 5.30 6.45 11.41 13.74 15.46 20.55 22.82 25.86 27.12 28.31 30.26 32.13 32.88 33.89 34.79 35.39 36.21 36.47 36.88 37.41 37.56 36.92 37.33 37.69 37.90 38.17 38.28 38.29 37.84 38.06 37.68 37.48 37.55 37.76
24.51 22.30 23.50 27.06 24.09 21.48 23.11 19.91 19.77 18.08 16.41 5.58 5.64 12.22 19.25 21.74 24.23 24.61 27.18 29.29 30.46 31.42 32.52 33.55 34.57 35.76 36.27 36.86 37.11 37.26 37.44 37.25 37.24 37.77 37.98 37.83 37.86 38.11 38.40 38.39 38.47 38.56 39.09 38.45
26.32 20.95 17.57 19.88 24.75 27.14 24.29 19.40 18.28 9.45 7.60 10.90 4.86 9.43 23.07 26.27 26.35 27.47 28.09 29.92 31.40 32.39 32.97 33.78 34.68 35.39 35.57 36.02 36.61 36.77 37.25 37.20 37.69 38.16 37.95 37.61 38.08 38.42 38.52 38.69 39.11 39.59 39.06 40.16
27.47 20.17 14.53 17.98 20.25 23.58 20.50 21.34 20.75 17.82 12.50 4.02 -0.55 9.87 28.40 27.14 26.22 28.43 28.14 29.98 31.02 31.91 32.55 33.51 34.01 33.77 34.48 35.54 36.13 36.65 37.19 37.53 38.17 38.20 37.94 38.06 38.47 38.47 38.57 39.27 39.71 40.69 40.89 41.19
31.51 21.43 18.63 14.87 17.37 19.64 17.62 21.07 20.12 14.77 3.13 4.17 11.52 14.77 21.91 24.41 24.70 27.03 28.58 30.07 30.62 31.33 32.10 32.66 32.88 33.32 34.22 35.44 35.99 36.58 37.27 38.01 38.32 38.63 38.59 38.58 38.98 39.41 39.85 40.32 40.73 41.29 41.72 41.39
24.32 18.95 18.64 19.97 20.67 21.23 19.98 20.01 20.00 10.35 15.36 5.58 16.29 16.97 21.31 23.28 25.32 27.19 29.23 29.86 29.83 30.18 31.16 31.56 31.96 32.68 34.28 35.10 35.75 37.06 37.46 38.22 38.95 38.79 38.84 39.06 40.29 40.75 40.96 41.03 41.35 41.61 41.28 41.37
23.64 18.12 18.14 16.55 20.37 19.70 18.93 20.41 20.21 20.43 19.80 17.84 19.24 18.31 23.88 27.43 28.46 28.00 28.29 28.80 28.52 29.70 30.50 31.39 32.38 33.50 34.28 35.04 36.45 37.07 37.33 37.92 38.93 38.28 38.63 39.66 39.94 40.16 40.31 40.68 40.80 41.00 41.11 41.38
20.78 18.38 13.74 11.23 15.89 17.58 12.27 17.51 19.64 20.29 20.52 19.39 15.46 20.66 25.73 25.42 26.57 27.23 27.80 28.48 28.99 29.80 30.29 31.14 32.73 33.92 34.76 36.20 36.96 36.56 37.54 38.73 38.57 38.66 39.14 39.71 40.08 39.92 40.01 40.13 39.94 39.67 39.78 40.38
19.74 17.51 12.38 6.95 12.74 5.21 16.22 21.96 22.56 20.89 22.87 22.39 23.53 24.81 26.07 26.81 28.48 29.08 29.90 29.67 29.63 30.37 30.82 32.07 33.77 34.69 35.92 36.80 37.16 37.58 38.09 38.21 38.23 38.61 39.71 40.95 41.45 40.61 40.59 40.80 41.65 42.06 42.93 43.57
21.46 16.39 3.34 5.55 7.12 13.70 17.49 21.28 20.31 18.48 19.31 24.23 23.63 25.70 27.11 28.41 28.07 28.11 31.78 31.85 31.21 31.38 32.59 33.90 35.25 35.90 36.24 36.57 37.34 37.32 36.96 37.22 37.69 39.18 40.86 42.45 42.49 41.73 41.59 40.41 40.06 41.94 43.94 45.21
21.65 16.95 10.82 2.16 2.16 7.49 16.31 23.23 25.41 23.05 12.97 23.99 26.11 25.55 26.15 26.92 21.76 24.80 30.92 31.80 31.65 32.80 33.59 34.23 35.78 36.00 36.05 36.61 37.72 36.68 36.16 36.61 38.33 40.46 42.85 42.89 42.29 41.10 40.24 39.96 40.57 42.28 42.87 42.29
10.32 5.67 3.58 8.05 0.04 11.99 20.60 24.07 26.04 10.38 13.46 26.74 27.11 26.99 27.07 24.61 26.67 29.66 31.69 31.43 32.55 32.98 33.65 35.89 35.67 34.96 35.87 36.91 37.45 35.67 36.14 37.23 39.96 43.28 43.14 42.38 42.29 41.58 41.52 41.39 41.89 41.58 41.78 41.93
14.65 6.76 2.94 1.86 -1.00 7.58 23.56 23.69 16.86 21.88 25.58 26.82 27.46 28.65 28.07 29.06 29.93 30.29 30.99 31.03 31.84 32.10 33.86 35.27 34.70 34.84 35.96 36.76 36.89 35.65 36.22 39.17 41.62 42.11 41.32 40.59 40.91 40.88 40.91 40.80 40.87 40.88 40.50 39.64
12.37 15.89 10.57 13.23 14.52 21.38 22.32 24.98 27.10 27.44 25.55 26.42 27.95 29.72 29.98 29.18 29.14 30.24 30.23 30.87 31.47 32.60 33.89 35.17 34.69 34.58 35.45 36.51 36.88 35.87 37.55 39.99 42.39 41.11 40.51 40.72 40.95 41.11 41.03 39.50 38.86 38.31 38.02 36.91
16.44 18.95 15.68 16.89 19.07 20.62 24.55 25.94 27.23 27.85 27.69 29.51 30.37 30.70 30.84 28.99 30.00 29.99 30.73 30.91 31.43 32.86 33.83 34.55 34.33 33.65 33.85 35.96 36.75 37.46 38.92 40.63 41.53 40.66 40.48 40.62 40.33 39.96 40.27 40.17 39.54 37.99 37.22 36.22
18.71 18.87 17.13 17.23 20.29 23.76 24.85 25.74 27.20 27.95 29.68 30.24 31.53 31.44 30.86 30.22 30.11 30.81 30.69 31.08 31.90 33.30 34.10 34.47 33.59 33.50 33.80 35.56 36.39 38.07 39.29 41.50 41.18 41.02 40.50 39.80 39.66 39.14 38.74 39.44 38.92 38.48 38.93 37.43
19.34 18.60 17.09 15.78 22.53 22.61 23.41 26.47 28.17 27.90 29.06 30.43 30.43 30.92 31.43 31.11 30.77 31.58 31.16 31.86 32.26 33.17 33.94 33.75 33.65 33.66 34.31 35.41 36.23 37.96 39.32 42.33 41.54 40.04 39.69 39.12 38.41 38.20 38.05 37.39 37.43 42.32 41.83 41.49
MSLP
1020.61 1021.91 1023.90 1024.22 1023.86 1023.52 1023.46 1023.65 1023.88 1023.99 1024.57 1025.82 1027.01 1028.13 1028.97 1029.72 1029.47 1029.85 1030.03 1029.84 1029.29 1028.57 1027.76 1026.66 1025.89 1025.12 1024.24 1023.56 1022.93 1022.34 1021.74 1021.07 1020.36 1019.63 1019.29 1018.61 1018.24 1017.44 1016.94 1016.45 1015.74 1015.43 1015.25 1015.02
1022.36 1024.00 1024.49 1024.40 1024.30 1024.05 1023.99 1024.15 1024.41 1024.39 1025.23 1026.27 1027.96 1029.02 1029.68 1030.15 1030.68 1030.75 1030.69 1030.25 1029.61 1028.55 1027.74 1027.00 1026.06 1025.25 1024.60 1023.85 1023.09 1022.30 1021.76 1021.06 1020.23 1019.60 1018.87 1018.52 1018.07 1017.26 1016.92 1016.01 1015.36 1015.29 1015.21 1014.96
1023.73 1025.09 1024.72 1024.65 1024.75 1024.56 1024.75 1025.07 1025.38 1025.88 1025.93 1026.57 1028.00 1029.35 1030.03 1030.77 1030.83 1030.81 1030.77 1030.41 1029.69 1028.92 1027.79 1026.82 1025.96 1025.24 1024.58 1023.77 1022.93 1022.21 1021.57 1021.08 1020.22 1019.16 1018.75 1017.91 1017.28 1016.76 1016.51 1015.79 1015.17 1014.69 1014.47 1014.22
1025.30 1025.59 1025.41 1025.45 1025.78 1026.02 1025.52 1024.94 1025.31 1025.87 1026.67 1027.11 1027.62 1029.39 1030.62 1031.31 1031.36 1031.32 1031.00 1030.29 1029.55 1028.71 1027.87 1026.94 1025.82 1025.09 1024.51 1023.62 1022.67 1021.87 1021.25 1020.55 1019.79 1018.99 1018.38 1017.73 1017.22 1016.84 1015.64 1015.42 1014.81 1014.34 1013.96 1013.56
1026.51 1026.12 1026.02 1026.18 1026.67 1026.68 1026.27 1025.58 1026.04 1026.38 1027.02 1027.94 1028.72 1030.08 1031.91 1031.93 1031.88 1031.54 1031.15 1030.56 1029.84 1029.02 1028.07 1026.81 1026.00 1025.16 1024.13 1023.26 1022.24 1021.32 1020.58 1019.92 1019.18 1018.48 1017.92 1017.53 1016.85 1016.10 1015.25 1014.77 1014.38 1013.82 1013.27 1012.91
1027.15 1026.68 1026.89 1027.11 1027.07 1027.21 1026.68 1026.37 1026.16 1026.58 1027.49 1028.47 1028.98 1030.41 1033.11 1032.90 1033.04 1032.30 1031.46 1030.66 1029.95 1028.86 1027.85 1026.75 1025.65 1024.59 1023.59 1022.53 1021.61 1020.66 1019.99 1019.25 1018.62 1017.93 1017.29 1016.84 1016.17 1015.35 1014.75 1014.06 1013.66 1012.97 1012.47 1012.11
1028.48 1027.96 1027.79 1027.60 1027.67 1027.71 1028.03 1028.01 1028.11 1028.37 1028.58 1029.32 1029.87 1030.91 1033.03 1033.30 1032.98 1032.52 1031.68 1030.65 1029.69 1028.90 1027.61 1026.39 1025.30 1024.14 1022.99 1021.98 1020.99 1020.17 1019.30 1018.34 1017.68 1017.04 1016.34 1015.70 1015.10 1014.49 1013.92 1013.21 1012.77 1012.16 1011.58 1011.17
1030.87 1029.29 1029.24 1028.97 1029.47 1029.62 1029.70 1030.31 1031.56 1031.94 1031.85 1031.18 1030.94 1032.10 1032.98 1033.32 1032.89 1031.72 1030.82 1030.20 1029.44 1028.58 1027.77 1026.57 1025.37 1024.13 1022.82 1021.67 1020.68 1019.81 1018.81 1017.69 1016.87 1016.09 1015.33 1014.57 1013.96 1013.46 1012.88 1012.19 1011.71 1011.13 1010.49 1009.95
1032.02 1030.76 1030.51 1030.41 1030.49 1030.96 1031.37 1032.43 1033.63 1034.13 1033.90 1034.10 1033.30 1033.37 1033.38 1032.76 1031.83 1031.69 1030.92 1029.76 1028.99 1028.32 1027.44 1026.28 1024.79 1023.78 1022.59 1021.36 1020.20 1018.99 1017.81 1016.83 1015.99 1015.07 1014.22 1013.38 1012.67 1012.05 1011.40 1010.67 1010.11 1009.65 1009.23 1008.79
1033.51 1032.77 1031.73 1031.77 1032.01 1032.69 1033.18 1034.48 1035.15 1036.51 1037.22 1036.86 1035.33 1034.69 1034.36 1033.55 1033.03 1032.27 1031.24 1030.24 1028.96 1027.90 1026.89 1025.69 1024.39 1023.07 1021.82 1020.71 1019.36 1018.16 1017.14 1015.96 1014.70 1013.78 1013.04 1012.02 1011.20 1010.52 1009.86 1009.24 1008.57 1008.15 1007.78 1007.42
1034.18 1034.33 1033.39 1032.78 1034.20 1034.83 1034.84 1036.02 1037.13 1038.66 1040.08 1040.31 1038.50 1035.96 1034.66 1034.00 1033.65 1032.85 1031.96 1030.67 1029.50 1028.09 1026.61 1025.25 1023.79 1022.41 1021.05 1019.58 1018.41 1017.20 1015.97 1014.79 1013.67 1012.66 1011.69 1010.90 1009.96 1009.22 1008.59 1008.01 1007.34 1006.87 1006.38 1006.08
1034.77 1035.12 1035.11 1035.31 1035.24 1035.34 1036.08 1037.43 1038.59 1040.17 1041.70 1041.57 1040.85 1036.76 1034.60 1034.10 1033.84 1033.07 1031.81 1030.39 1029.07 1027.88 1026.39 1024.72 1023.14 1021.63 1020.14 1018.66 1017.43 1016.34 1015.15 1014.07 1012.97 1011.80 1010.92 1009.96 1008.93 1008.15 1007.38 1006.68 1006.07 1005.60 1005.03 1005.10
1035.10 1035.86 1035.99 1035.80 1036.43 1036.66 1037.63 1038.55 1039.63 1040.95 1041.99 1042.40 1042.01 1037.49 1034.98 1034.60 1033.75 1032.59 1031.42 1029.90 1028.62 1027.20 1025.65 1024.07 1022.43 1021.05 1019.58 1018.10 1016.86 1015.60 1014.55 1013.35 1012.24 1011.27 1010.18 1009.08 1008.07 1007.21 1006.49 1005.72 1005.00 1004.52 1003.86 1003.63
1035.40 1036.53 1037.06 1038.01 1037.93 1038.58 1038.85 1039.52 1040.22 1040.94 1042.88 1042.72 1041.65 1038.41 1036.21 1034.72 1034.07 1032.50 1031.21 1029.92 1028.42 1026.92 1025.41 1023.69 1021.97 1020.53 1019.15 1017.82 1016.49 1015.27 1014.13 1012.95 1011.67 1010.45 1009.25 1008.09 1006.94 1006.17 1005.23 1004.45 1003.69 1003.02 1002.57 1002.17
1036.50 1037.60 1038.15 1038.58 1038.99 1039.01 1039.49 1039.81 1040.35 1041.06 1041.59 1042.20 1040.27 1038.97 1037.18 1035.78 1034.54 1033.05 1031.63 1030.07 1028.39 1026.69 1024.97 1023.43 1021.90 1020.40 1019.04 1017.59 1016.26 1015.11 1013.78 1012.38 1010.94 1009.53 1008.18 1007.01 1005.96 1005.06 1004.13 1003.28 1002.47 1001.80 1001.36 1000.85
1037.72 1038.62 1039.30 1039.75 1039.61 1039.58 1039.90 1040.06 1039.88 1040.47 1040.83 1040.84 1039.54 1038.42 1037.02 1035.70 1034.06 1032.77 1031.32 1029.90 1028.54 1026.74 1025.09 1023.49 1021.82 1020.56 1019.05 1017.71 1016.26 1014.77 1013.21 1011.79 1010.40 1008.99 1007.50 1006.15 1005.07 1004.10 1003.34 1002.40 1001.55 1000.73 999.98 999.50
1039.21 1040.13 1041.01 1041.23 1040.86 1040.41 1040.42 1040.24 1040.40 1040.15 1040.25 1040.19 1039.49 1038.37 1037.15 1035.10 1033.78 1032.26 1031.25 1030.02 1028.57 1026.76 1025.27 1023.44 1021.87 1020.72 1019.27 1017.74 1016.25 1014.62 1012.77 1011.15 1009.64 1008.26 1006.72 1005.54 1004.44 1003.49 1002.81 1001.81 1000.61 999.51 998.45 997.82
1040.41 1041.59 1043.00 1043.30 1042.07 1041.28 1040.46 1039.90 1039.85 1040.03 1039.52 1039.37 1039.14 1038.31 1037.53 1036.07 1034.54 1032.71 1031.27 1030.14 1028.52 1027.04 1025.33 1023.45 1022.16 1020.81 1019.27 1017.83 1016.06 1014.44 1012.66 1010.87 1009.26 1007.68 1006.19 1004.89 1003.77 1003.02 1002.31 1001.20 1000.03 998.84 996.88 995.22
1040.71 1042.53 1044.25 1044.99 1043.87 1041.98 1040.73 1040.04 1039.94 1039.87 1038.95 1039.11 1038.91 1037.48 1036.71 1035.49 1033.93 1031.96 1030.90 1029.74 1028.68 1027.30 1025.63 1023.90 1022.59 1021.05 1019.41 1017.80 1016.09 1014.33 1012.42 1011.00 1009.20 1007.38 1005.76 1004.64 1003.79 1003.10 1002.47 1001.70 1000.79 999.11 997.50 996.18
1041.80 1043.21 1044.61 1045.89 1045.26 1043.29 1041.24 1040.34 1039.58 1039.71 1039.28 1038.91 1038.67 1037.77 1036.58 1035.21 1033.86 1031.74 1030.59 1029.63 1028.37 1027.08 1025.77 1024.10 1022.43 1021.15 1019.69 1017.80 1016.30 1014.45 1012.71 1011.16 1009.40 1007.66 1006.15 1005.54 1004.79 1004.19 1003.59 1002.96 1001.79 1000.59 999.53 998.80
1042.76 1044.49 1045.94 1046.26 1045.75 1042.89 1041.23 1040.56 1039.96 1040.03 1039.72 1038.58 1038.50 1037.92 1036.87 1036.04 1035.27 1032.85 1031.15 1029.52 1028.53 1027.14 1025.73 1024.12 1022.67 1021.37 1019.88 1018.17 1016.60 1014.95 1013.28 1011.59 1009.91 1008.55 1007.43 1006.62 1005.91 1005.27 1004.72 1003.96 1003.08 1002.30 1001.53 1001.08
1042.72 1044.49 1045.71 1046.17 1045.11 1042.43 1040.37 1040.10 1040.60 1040.36 1039.46 1038.95 1038.40 1037.62 1036.97 1035.87 1034.26 1032.84 1031.45 1029.94 1028.33 1026.77 1025.35 1024.16 1022.75 1021.45 1020.07 1018.48 1017.03 1015.45 1013.96 1012.31 1010.66 1009.72 1008.66 1007.87 1007.28 1006.68 1006.00 1005.28 1004.62 1004.08 1003.57 1003.29
1042.62 1042.80 1043.65 1043.66 1042.08 1040.86 1040.25 1039.88 1039.80 1039.78 1039.58 1038.87 1038.33 1037.31 1036.66 1035.47 1034.31 1032.94 1031.51 1030.23 1028.76 1027.32 1025.92 1024.69 1023.39 1021.93 1020.57 1019.09 1017.64 1016.01 1014.76 1013.07 1011.76 1010.90 1010.00 1009.21 1008.47 1007.87 1007.30 1006.79 1006.36 1005.93 1005.60 1005.46
1041.79 1042.00 1042.47 1042.61 1041.69 1040.77 1040.17 1039.72 1039.49 1039.39 1039.19 1038.46 1037.91 1037.17 1036.43 1035.66 1034.41 1032.99 1031.72 1030.55 1029.01 1027.66 1026.18 1025.05 1023.88 1022.33 1020.98 1019.70 1018.36 1016.98 1015.50 1014.13 1012.86 1012.01 1011.21 1010.70 1010.02 1009.53 1008.90 1008.45 1008.09 1007.81 1007.72 1007.71
1041.41 1041.73 1041.91 1041.77 1041.06 1040.49 1039.87 1039.74 1039.58 1039.38 1038.89 1038.22 1037.29 1036.74 1036.13 1034.97 1034.00 1033.04 1031.86 1030.77 1029.37 1027.99 1026.77 1025.75 1024.64 1023.28 1021.78 1020.52 1019.15 1017.75 1016.46 1015.06 1013.90 1013.29 1012.77 1012.29 1011.90 1011.48 1011.07 1010.57 1010.35 1010.07 1009.96 1009.81
1040.83 1040.88 1041.38 1040.98 1040.71 1040.79 1040.37 1039.94 1039.66 1039.25 1038.57 1037.84 1037.43 1036.55 1035.79 1035.30 1034.42 1033.00 1032.05 1030.97 1029.77 1028.35 1027.07 1026.11 1025.20 1023.92 1022.43 1021.12 1019.89 1018.59 1017.43 1016.04 1015.27 1014.71 1014.29 1014.01 1013.66 1013.35 1013.07 1012.84 1012.57 1012.27 1012.04 1011.73
Wind_Speed
8 13 7 5 4 2 3 2 3 2 2 7 5 6 7 11 17 16 16 16 17 18 14 18 17 17 16 17 16 14 13 15 7 4 5 4 4 5 5 4 7 7 7 8
9 8 4 2 6 2 1 1 4 5 3 7 4 7 9 11 10 11 13 14 16 18 18 19 19 18 17 18 18 17 17 16 12 6 4 4 4 5 5 5 7 6 7 8
9 3 4 2 5 10 3 2 5 6 5 4 8 3 4 5 9 11 11 8 12 15 18 18 20 19 18 18 18 17 16 15 14 11 5 4 4 3 3 5 5 7 6 7
8 5 5 8 6 5 5 3 8 7 3 5 4 4 4 6 11 15 13 12 16 18 17 17 18 16 19 18 17 16 15 14 13 13 10 7 5 7 8 5 7 7 8 9
1 5 7 7 5 4 8 16 6 1 3 2 0 1 3 6 13 18 17 16 17 19 19 22 19 19 19 17 16 16 16 15 13 13 10 9 9 7 8 6 9 9 9 9
2 3 4 3 3 3 11 7 2 3 4 0 4 3 3 4 7 13 16 19 20 21 21 21 21 20 18 18 17 16 16 15 15 13 14 12 13 13 9 10 9 9 7 7
7 4 6 5 6 7 11 8 6 6 6 3 5 4 1 4 6 7 18 20 21 21 22 23 24 23 23 23 22 19 19 21 18 16 16 15 14 14 14 13 10 11 9 7
6 7 8 9 3 4 4 5 4 6 5 9 6 1 2 3 8 16 24 21 21 21 19 22 23 23 23 23 22 21 20 21 20 19 18 16 15 10 11 12 11 11 10 11
4 3 1 7 5 4 6 8 2 5 3 3 3 1 3 13 24 23 27 27 24 23 23 24 25 22 22 22 23 22 22 21 21 20 19 18 17 16 14 17 14 11 13 11
3 6 3 4 6 10 10 4 5 5 7 8 4 5 4 15 20 21 28 28 27 26 26 24 23 24 21 22 21 22 22 22 22 21 18 17 18 17 16 15 17 16 15 15
3 2 4 4 8 5 6 4 4 2 2 3 6 6 3 12 17 18 25 24 25 27 27 25 23 24 24 23 22 22 22 23 22 20 20 19 19 18 16 17 15 16 16 14
2 3 2 2 2 6 5 3 3 6 7 2 4 9 3 18 17 18 25 25 25 26 26 25 25 25 24 24 23 22 22 23 22 21 21 21 20 18 19 17 19 17 13 15
1 3 4 1 2 4 6 3 4 5 3 3 3 9 17 19 18 25 26 27 27 28 27 26 26 25 24 24 23 24 22 23 22 21 21 20 20 19 18 19 16 18 17 16
2 3 5 5 2 1 3 5 3 5 4 3 8 17 24 24 22 28 28 28 28 27 28 28 27 26 25 25 24 24 24 23 22 20 20 20 19 18 18 17 18 17 16 15
4 3 2 3 4 1 2 2 3 2 5 4 14 18 21 14 22 25 25 26 28 28 30 30 28 27 27 28 27 24 24 23 22 21 20 19 18 17 17 16 16 15 15 14
4 1 3 3 4 1 3 3 6 0 2 8 13 18 3 19 23 23 26 27 26 29 31 30 30 29 29 29 26 25 24 22 21 21 20 19 18 17 16 16 16 16 16 15
4 3 4 2 4 2 1 2 2 7 5 7 8 9 14 27 26 28 27 25 26 30 29 30 30 28 27 26 26 24 25 23 21 20 20 18 17 16 15 15 16 17 16 15
3 3 3 2 2 4 4 3 5 9 10 5 4 15 16 20 22 25 20 20 27 29 28 29 25 27 26 26 25 25 23 22 22 20 20 17 14 13 14 14 14 15 14 12
5 4 3 3 1 4 1 4 4 3 12 2 14 21 20 21 18 16 19 24 26 27 26 25 25 26 26 25 25 24 23 22 21 22 20 17 15 13 13 14 16 16 14 19
6 7 5 4 3 3 3 6 4 2 5 1 15 18 22 22 17 19 27 26 27 26 24 25 26 25 25 26 24 24 23 21 22 21 19 16 13 14 15 14 15 15 15 20
4 4 4 1 2 7 5 7 6 6 7 16 14 16 18 13 13 24 25 27 24 23 25 27 24 23 25 25 24 23 23 23 22 18 18 15 15 15 15 13 13 15 17 19
5 5 2 3 3 4 3 3 2 6 6 8 12 14 16 18 21 22 23 25 26 26 26 27 23 24 24 25 22 23 23 23 20 18 18 17 16 14 13 15 14 15 16 18
2 6 5 8 6 3 3 6 5 5 7 7 12 16 14 17 20 21 21 23 24 24 23 22 22 25 24 24 23 23 22 22 17 17 16 15 16 15 15 15 15 13 16 14
2 3 2 3 2 4 6 4 4 4 7 13 12 13 14 17 20 22 20 21 21 21 23 22 22 24 24 24 23 22 21 20 16 15 16 14 16 18 17 14 14 13 12 12
4 4 4 4 6 6 4 4 6 6 8 12 13 12 14 14 17 18 20 19 20 20 21 20 20 21 23 23 22 21 21 17 14 14 14 14 13 15 17 19 16 15 17 15
5 6 5 5 4 4 8 6 7 6 10 12 10 14 14 11 17 17 17 17 18 20 21 19 21 21 23 22 21 20 20 15 14 12 11 13 10 11 11 13 15 32 30 30
Wind_Direction
22 58 62 41 0 264 241 248 275 262 7 87 98 109 61 57 50 38 27 18 11 360 339 348 345 340 341 341 334 330 321 311 303 289 305 287 273 290 285 268 287 299 295 292
43 64 317 215 351 337 138 241 310 299 19 85 169 109 86 64 57 47 24 12 358 353 349 343 338 336 336 332 327 329 324 316 305 293 257 247 258 266 257 278 288 266 263 265
87 326 326 33 10 14 352 48 312 264 345 58 131 189 162 69 46 24 17 356 354 345 338 335 331 328 325 324 324 317 316 309 308 300 279 259 233 259 279 277 276 276 277 279
69 350 24 28 49 37 297 212 291 289 155 220 192 283 78 9 11 11 354 347 342 338 332 325 325 324 319 315 315 312 311 301 310 314 313 307 291 295 289 264 272 269 261 268
307 11 20 25 355 336 264 304 299 270 176 79 158 3 33 8 2 352 346 339 338 334 328 327 329 323 319 312 313 313 313 307 305 312 304 294 291 274 275 275 270 263 260 254
38 357 54 300 335 332 291 326 49 82 112 251 154 66 48 9 316 334 342 343 335 332 327 325 324 321 319 317 313 310 308 305 306 303 294 283 282 288 284 285 278 272 259 249
343 18 339 29 355 356 16 3 336 360 3 262 84 13 176 270 284 310 336 338 340 337 332 329 328 325 320 319 317 315 313 310 306 301 296 288 279 275 276 281 279 273 270 260
22 332 11 325 51 279 29 64 105 289 304 300 350 47 198 229 284 340 349 337 334 336 330 323 321 318 316 315 311 307 306 304 301 298 295 289 283 271 267 268 267 267 265 267
5 257 357 49 19 357 346 43 322 286 356 20 321 347 49 338 0 347 340 336 335 331 326 320 317 315 312 310 307 306 305 300 298 295 294 287 284 277 271 269 263 259 257 261
328 319 42 336 13 17 78 331 10 12 344 317 329 312 316 347 352 341 339 332 327 325 321 318 316 314 310 307 304 304 303 298 296 295 291 287 287 283 276 271 273 264 263 261
13 68 315 40 27 346 7 26 34 98 105 225 304 275 190 349 345 333 331 325 322 319 317 316 313 312 310 307 309 308 305 304 303 300 297 297 291 288 285 287 282 276 277 265
348 135 310 25 99 65 68 74 87 106 296 244 156 276 287 347 335 330 325 321 320 315 313 314 314 314 314 313 314 313 311 309 305 305 306 299 297 294 290 288 283 284 269 275
342 24 349 214 251 36 53 39 60 94 90 239 99 274 324 327 330 329 325 324 322 318 319 319 320 321 317 319 319 318 317 311 309 307 302 300 296 291 290 287 284 279 275 268
103 101 139 195 268 211 7 41 64 106 86 265 254 295 317 326 332 326 323 321 318 319 320 321 322 323 323 323 322 320 317 315 310 306 299 296 294 292 289 286 282 278 274 268
77 107 60 55 74 34 88 41 11 125 215 146 298 303 312 315 319 316 314 318 320 321 324 324 325 326 325 323 324 320 317 315 314 310 306 300 297 294 289 284 285 281 277 273
351 77 67 56 352 258 117 8 342 37 261 258 300 303 305 315 317 321 322 322 320 323 324 325 325 328 323 324 321 319 318 316 314 311 306 304 302 300 296 297 295 288 280 270
46 71 50 341 341 121 328 202 335 292 258 272 301 304 320 323 324 323 320 317 323 323 326 325 328 324 322 323 322 322 319 316 313 311 308 309 307 310 314 308 300 290 281 267
102 75 67 253 340 4 235 247 247 275 301 294 318 314 317 311 310 309 305 326 325 326 325 323 327 324 325 324 323 322 321 320 320 320 321 322 324 320 320 317 332 344 312 277
56 103 55 103 220 312 33 324 314 331 313 134 338 327 324 320 314 311 334 332 325 324 323 322 327 326 327 327 325 326 326 328 327 330 332 340 351 355 6 11 356 346 9 43
69 64 108 50 75 265 184 285 284 148 285 6 338 321 322 331 335 321 328 324 325 324 324 326 329 328 330 330 330 330 331 332 337 337 345 19 16 20 24 13 5 10 38 52
17 9 110 114 222 287 258 301 318 50 261 328 325 313 316 318 301 303 316 322 324 323 325 329 332 331 332 331 334 334 334 340 335 349 5 18 21 22 22 19 24 33 47 55
175 131 177 82 55 316 192 342 103 242 293 292 306 310 312 309 311 315 322 324 326 327 332 337 335 336 334 335 337 336 340 337 341 8 12 19 29 29 21 25 28 38 50 55
312 179 181 173 219 240 246 209 257 273 284 297 311 310 313 313 317 320 324 326 325 327 330 339 337 334 335 337 340 337 341 343 7 12 19 24 35 33 31 33 36 41 46 51
238 157 152 50 266 248 271 274 232 279 293 305 305 308 320 319 320 320 326 327 325 329 337 341 340 336 336 339 339 339 343 348 4 16 18 28 38 41 41 42 42 42 43 48
194 128 160 272 294 311 343 250 304 306 296 309 317 319 315 314 318 323 325 328 325 328 338 345 340 336 335 338 338 341 347 354 3 16 24 30 37 43 47 50 48 50 53 57
186 175 156 216 222 193 269 294 307 321 319 316 317 317 317 321 318 325 326 327 326 334 340 343 341 336 335 338 338 343 347 354 10 19 22 31 32 38 47 55 58 57 62 64